Location: ????
(55.5675°N, 37.6272°E)
Time: 09:35:51
(UTC+00:00)

TSX-5 - Pass Details

Date: 14 April 2026
Orbit: 387 x 997 km, 68.9° (Epoch: 19 May)

Event Time Altitude Azimuth Distance (km) Brightness Sun altitude
Rises 19:33:59 0° 222° (SW) 3,157 7.5 -20.5°
Reaches altitude 10° 19:36:33 10° 224° (SW) 2,130 6.6 -20.7°
Maximum altitude 19:41:18 74° 310° (NW) 625 4.1 -21.0°
Drops below altitude 10° 19:45:15 10° 36° (NE) 1,773 6.7 -21.3°
Sets 19:47:14 0° 38° (NE) 2,582 7.6 -21.4°
